Hourly Weather Al Hilla

Today, 4 March, Thursday

Time Temperature Precipitation Wind Pressure Humidity
00:00 +20°C° 0 mm 4 mps 758 mmHg 24%
01:00 +19°C° 0 mm 4 mps 758 mmHg 25%
02:00 +19°C° 0 mm 4 mps 757 mmHg 27%
03:00 +18°C° 0 mm 4 mps 757 mmHg 28%
04:00 +18°C° 0 mm 4 mps 757 mmHg 29%
05:00 +18°C° 0 mm 4 mps 757 mmHg 31%
06:00 +17°C° 0 mm 4 mps 757 mmHg 33%
07:00 +19°C° 0 mm 5 mps 757 mmHg 30%
08:00 +21°C° 0 mm 6 mps 757 mmHg 26%
09:00 +22°C° 0 mm 7 mps 757 mmHg 25%
10:00 +23°C° 0 mm 7 mps 757 mmHg 23%
11:00 +24°C° 0 mm 8 mps 756 mmHg 21%
12:00 +27°C° 0 mm 9 mps 756 mmHg 19%
13:00 +28°C° 0 mm 9 mps 755 mmHg 19%
14:00 +29°C° 0 mm 9 mps 754 mmHg 19%
15:00 +29°C° 0 mm 9 mps 753 mmHg 19%
16:00 +29°C° 0 mm 8 mps 753 mmHg 20%
17:00 +28°C° 0 mm 7 mps 752 mmHg 21%
18:00 +27°C° 0 mm 7 mps 752 mmHg 21%
19:00 +26°C° 0 mm 7 mps 752 mmHg 24%
20:00 +24°C° 0 mm 8 mps 752 mmHg 26%
21:00 +23°C° 0 mm 9 mps 753 mmHg 29%
22:00 +21°C° 0 mm 8 mps 753 mmHg 32%
23:00 +20°C° 0 mm 8 mps 753 mmHg 36%

Tomorrow, 5 March, Friday

Time Temperature Precipitation Wind Pressure Humidity
00:00 +17°C° 0 mm 7 mps 754 mmHg 40%
01:00 +17°C° 0 mm 7 mps 754 mmHg 39%
02:00 +16°C° 0 mm 7 mps 755 mmHg 38%
03:00 +15°C° 0 mm 6 mps 755 mmHg 38%
04:00 +15°C° 0 mm 6 mps 756 mmHg 43%
05:00 +14°C° 0 mm 6 mps 756 mmHg 49%
06:00 +14°C° 0 mm 6 mps 757 mmHg 54%
07:00 +15°C° 0 mm 7 mps 757 mmHg 53%
08:00 +16°C° 0 mm 8 mps 758 mmHg 53%
09:00 +17°C° 0 mm 9 mps 758 mmHg 52%
10:00 +18°C° 0 mm 9 mps 759 mmHg 49%
11:00 +19°C° 0 mm 9 mps 759 mmHg 45%
12:00 +21°C° 0 mm 9 mps 760 mmHg 42%
13:00 +22°C° 0 mm 9 mps 760 mmHg 38%
14:00 +22°C° 0 mm 9 mps 759 mmHg 34%
15:00 +23°C° 0 mm 8 mps 759 mmHg 30%
16:00 +22°C° 0 mm 7 mps 760 mmHg 29%
17:00 +21°C° 0 mm 6 mps 760 mmHg 28%
18:00 +20°C° 0 mm 5 mps 761 mmHg 27%
19:00 +19°C° 0 mm 4 mps 761 mmHg 29%
20:00 +18°C° 0 mm 3 mps 762 mmHg 31%
21:00 +17°C° 0 mm 2 mps 762 mmHg 33%
22:00 +17°C° 0 mm 2 mps 763 mmHg 35%
23:00 +16°C° 0 mm 1 mps 763 mmHg 37%

Day after tomorrow, 6 March, Saturday

Time Temperature Precipitation Wind Pressure Humidity
00:00 +15°C° 0 mm 1 mps 763 mmHg 39%
01:00 +15°C° 0 mm 2 mps 763 mmHg 39%
02:00 +15°C° 0 mm 2 mps 763 mmHg 39%
03:00 +14°C° 0 mm 3 mps 763 mmHg 39%
04:00 +14°C° 0 mm 3 mps 763 mmHg 42%
05:00 +14°C° 0 mm 3 mps 763 mmHg 45%
06:00 +13°C° 0 mm 4 mps 764 mmHg 48%
07:00 +15°C° 0 mm 4 mps 764 mmHg 47%
08:00 +16°C° 0 mm 5 mps 764 mmHg 45%
09:00 +17°C° 0 mm 5 mps 765 mmHg 43%
10:00 +20°C° 0 mm 6 mps 764 mmHg 37%
11:00 +21°C° 0 mm 6 mps 764 mmHg 32%
12:00 +23°C° 0 mm 6 mps 764 mmHg 26%
13:00 +23°C° 0 mm 6 mps 763 mmHg 25%
14:00 +23°C° 0 mm 6 mps 763 mmHg 23%
15:00 +24°C° 0 mm 6 mps 762 mmHg 22%
16:00 +23°C° 0 mm 6 mps 762 mmHg 23%
17:00 +22°C° 0 mm 5 mps 762 mmHg 24%
18:00 +20°C° 0 mm 4 mps 762 mmHg 26%
19:00 +19°C° 0 mm 4 mps 762 mmHg 28%
20:00 +18°C° 0 mm 3 mps 762 mmHg 30%
21:00 +17°C° 0 mm 3 mps 762 mmHg 32%
22:00 +17°C° 0 mm 3 mps 762 mmHg 33%
23:00 +16°C° 0 mm 3 mps 762 mmHg 34%

7 March, Sunday

Time Temperature Precipitation Wind Pressure Humidity
00:00 +16°C° 0 mm 2 mps 762 mmHg 35%
01:00 +15°C° 0 mm 2 mps 761 mmHg 36%
02:00 +15°C° 0 mm 2 mps 761 mmHg 36%
03:00 +15°C° 0 mm 2 mps 760 mmHg 37%
04:00 +14°C° 0 mm 2 mps 760 mmHg 38%
05:00 +14°C° 0 mm 2 mps 760 mmHg 39%
06:00 +13°C° 0 mm 1 mps 760 mmHg 41%
07:00 +15°C° 0 mm 1 mps 761 mmHg 36%
08:00 +18°C° 0 mm 1 mps 761 mmHg 32%
09:00 +18°C° 0 mm 0 mps 761 mmHg 27%
10:00 +22°C° 0 mm 1 mps 761 mmHg 24%
11:00 +23°C° 0 mm 2 mps 760 mmHg 21%
12:00 +25°C° 0 mm 2 mps 760 mmHg 19%
13:00 +25°C° 0 mm 3 mps 759 mmHg 17%
14:00 +26°C° 0 mm 3 mps 758 mmHg 16%
15:00 +27°C° 0 mm 3 mps 757 mmHg 15%
16:00 +25°C° 0 mm 2 mps 757 mmHg 16%
17:00 +24°C° 0 mm 2 mps 757 mmHg 18%
18:00 +22°C° 0 mm 1 mps 757 mmHg 20%
19:00 +22°C° 0 mm 1 mps 757 mmHg 21%
20:00 +21°C° 0 mm 1 mps 757 mmHg 21%
21:00 +19°C° 0 mm 2 mps 757 mmHg 22%
22:00 +19°C° 0 mm 2 mps 757 mmHg 23%
23:00 +19°C° 0 mm 2 mps 757 mmHg 24%

8 March, Monday

Time Temperature Precipitation Wind Pressure Humidity
00:00 +18°C° 0 mm 3 mps 757 mmHg 25%
01:00 +18°C° 0 mm 2 mps 757 mmHg 26%
02:00 +17°C° 0 mm 2 mps 756 mmHg 27%
03:00 +17°C° 0 mm 2 mps 756 mmHg 29%
04:00 +16°C° 0 mm 2 mps 756 mmHg 29%
05:00 +16°C° 0 mm 2 mps 756 mmHg 29%
06:00 +16°C° 0 mm 2 mps 756 mmHg 29%
07:00 +18°C° 0 mm 3 mps 756 mmHg 26%
08:00 +20°C° 0 mm 3 mps 757 mmHg 23%
09:00 +22°C° 0 mm 3 mps 757 mmHg 20%
10:00 +23°C° 0 mm 4 mps 757 mmHg 18%
11:00 +26°C° 0 mm 5 mps 756 mmHg 16%
12:00 +28°C° 0 mm 6 mps 756 mmHg 14%
13:00 +29°C° 0 mm 6 mps 755 mmHg 14%
14:00 +29°C° 0 mm 6 mps 754 mmHg 14%
15:00 +30°C° 0 mm 6 mps 754 mmHg 13%
16:00 +28°C° 0 mm 6 mps 754 mmHg 14%
17:00 +27°C° 0 mm 6 mps 754 mmHg 14%
18:00 +24°C° 0 mm 6 mps 754 mmHg 14%
19:00 +23°C° 0 mm 6 mps 755 mmHg 18%
20:00 +22°C° 0 mm 6 mps 755 mmHg 22%
21:00 +20°C° 0 mm 5 mps 756 mmHg 26%
22:00 +20°C° 0 mm 5 mps 756 mmHg 29%
23:00 +19°C° 0 mm 5 mps 756 mmHg 31%

9 March, Tuesday

Time Temperature Precipitation Wind Pressure Humidity
00:00 +17°C° 0 mm 5 mps 757 mmHg 34%
01:00 +17°C° 0 mm 5 mps 757 mmHg 37%
02:00 +17°C° 0 mm 4 mps 757 mmHg 39%
03:00 +17°C° 0 mm 4 mps 757 mmHg 42%
04:00 +16°C° 0 mm 3 mps 757 mmHg 44%
05:00 +16°C° 0 mm 3 mps 758 mmHg 46%
06:00 +14°C° 0 mm 3 mps 758 mmHg 48%
07:00 +17°C° 0 mm 3 mps 759 mmHg 45%
08:00 +18°C° 0 mm 3 mps 759 mmHg 41%
09:00 +20°C° 0 mm 3 mps 760 mmHg 38%
10:00 +21°C° 0 mm 3 mps 760 mmHg 34%
11:00 +23°C° 0 mm 4 mps 760 mmHg 30%
12:00 +25°C° 0 mm 4 mps 760 mmHg 26%
13:00 +26°C° 0 mm 5 mps 759 mmHg 25%
14:00 +26°C° 0 mm 5 mps 759 mmHg 23%
15:00 +26°C° 0 mm 5 mps 758 mmHg 22%
16:00 +25°C° 0 mm 5 mps 759 mmHg 24%
17:00 +23°C° 0 mm 4 mps 759 mmHg 26%
18:00 +22°C° 0 mm 4 mps 759 mmHg 28%
19:00 +22°C° 0 mm 3 mps 759 mmHg 30%
20:00 +21°C° 0 mm 2 mps 759 mmHg 31%
21:00 +22°C° 0 mm 1 mps 759 mmHg 33%
22:00 +20°C° 0 mm 2 mps 759 mmHg 34%
23:00 +19°C° 0 mm 2 mps 759 mmHg 34%
Show more